RH
17 14 13 21 14 11 12 10 9 16 15 41 52 46 46 56 52 66 96 100 98 100 98 59 50 52 65 71 71 61 48 42 28 14 10 10 12 13 16 21 32 44 50 52 49 40 40 45 46
15 12 23 14 12 12 10 10 12 22 36 54 57 56 48 74 86 92 98 99 99 98 100 91 52 49 50 49 47 41 32 20 11 10 11 13 17 18 20 27 37 47 48 54 48 40 42 46 45
15 15 19 13 11 11 10 11 15 20 47 47 45 58 60 79 89 95 92 96 99 99 100 96 55 53 51 48 38 23 14 10 10 12 16 19 19 21 32 37 40 50 55 54 44 42 46 48 46
21 21 16 12 11 10 11 9 11 18 37 44 44 55 84 98 95 99 98 95 100 96 100 79 58 57 53 38 21 13 10 10 12 16 19 19 20 32 36 34 36 46 45 44 44 47 48 49 43
18 14 13 12 11 11 8 10 26 24 32 39 45 52 72 99 95 95 99 96 99 100 100 76 64 63 44 25 15 10 10 12 16 19 18 22 32 36 34 34 36 38 40 44 46 47 50 46 45
15 14 13 12 11 9 12 28 38 40 43 50 50 53 81 97 99 95 100 100 100 100 100 93 84 64 50 48 18 14 14 18 19 18 20 30 42 38 35 34 36 40 43 41 44 48 48 43 38
14 13 13 12 15 15 20 41 44 44 42 48 56 51 98 97 98 99 96 98 99 100 100 100 91 73 66 43 63 30 22 24 18 18 24 38 38 32 32 35 38 39 42 48 52 50 48 51 52
16 12 12 12 15 16 25 42 55 50 46 64 64 50 84 92 100 99 97 93 100 100 100 95 90 70 64 54 51 43 28 23 20 21 28 35 35 36 40 44 45 48 52 55 58 58 60 60 57
18 15 12 14 15 15 28 36 55 65 56 64 73 71 96 97 100 99 99 99 99 100 100 100 98 72 68 64 50 48 25 24 27 35 38 44 52 49 64 55 53 55 56 59 61 64 64 63 60
16 15 13 12 13 14 25 40 49 58 56 60 90 98 100 100 99 99 100 100 100 100 100 100 98 86 78 76 65 50 43 37 38 44 55 74 75 76 64 53 56 59 60 63 65 65 65 67 64
16 16 13 13 14 16 23 40 48 44 48 48 78 99 100 100 99 96 100 100 99 100 100 100 92 84 77 76 56 42 40 33 39 52 68 72 63 50 51 53 64 62 66 69 67 68 69 69 68
17 14 14 15 23 31 37 41 42 48 58 71 97 99 99 95 97 98 99 99 99 100 94 96 96 93 80 65 65 49 49 53 41 41 38 41 42 44 59 81 79 62 77 70 69 70 71 71 69
18 15 16 19 28 35 43 38 39 59 73 82 100 100 98 98 98 99 100 100 99 100 100 99 85 79 78 75 68 63 57 47 57 36 38 47 46 39 46 57 65 74 71 74 72 73 73 73 68
17 18 22 28 34 35 30 36 42 69 78 90 95 93 99 98 100 99 100 100 99 99 93 82 87 74 72 64 64 61 50 41 38 39 37 37 38 38 42 56 67 73 78 75 75 75 74 73 62
19 21 24 26 31 30 35 34 32 69 77 86 72 84 94 98 98 99 96 96 97 91 98 93 89 66 67 58 43 49 39 39 47 56 36 41 48 51 61 66 69 71 75 75 75 75 76 69 50
17 19 19 26 28 34 31 29 40 72 72 67 61 70 73 93 96 95 97 96 87 85 94 99 98 90 84 59 43 66 66 49 62 69 65 70 72 73 75 78 76 78 78 77 76 77 75 59 48
18 17 17 18 26 27 29 25 40 72 65 54 54 62 65 73 77 89 92 88 88 84 91 97 98 89 52 44 36 48 58 57 91 72 76 79 76 72 72 75 76 80 79 78 78 78 68 54 45
16 18 16 18 25 29 28 24 38 54 57 50 47 55 63 63 71 74 84 83 79 80 91 94 93 93 75 62 48 60 83 84 92 81 75 72 74 73 73 74 74 83 83 82 81 75 59 53 54
20 19 17 19 20 26 23 20 20 43 53 48 44 47 52 59 62 75 70 73 73 79 91 93 96 97 89 96 82 69 76 85 93 90 69 76 77 72 72 71 70 85 87 84 81 68 56 51 50
25 22 20 21 21 23 17 17 17 32 42 43 38 41 42 50 59 69 77 73 72 74 82 85 87 95 98 95 85 72 68 80 86 90 79 79 76 68 65 65 73 83 89 86 78 64 57 64 60
27 23 22 22 22 20 20 18 20 26 36 44 42 38 40 43 54 64 70 77 80 75 84 82 83 91 99 98 95 83 79 89 93 91 79 82 78 75 71 71 75 82 87 85 74 63 56 64 67
27 21 22 24 24 23 21 22 16 21 29 38 44 46 46 44 48 55 66 73 77 79 78 81 84 89 95 99 95 87 69 78 89 96 91 79 87 82 78 71 77 83 87 82 72 63 60 61 70
23 22 24 24 23 24 22 23 17 23 21 25 31 36 42 42 42 46 54 65 73 77 81 78 78 82 92 95 95 94 79 71 81 98 98 82 81 86 82 76 84 87 83 78 70 64 58 62 80
24 27 26 27 26 35 20 22 18 16 16 14 16 27 35 41 43 42 45 56 64 73 80 89 84 84 89 94 90 92 94 82 83 100 89 75 79 88 86 82 86 84 82 77 72 64 60 68 73
26 27 35 39 40 38 28 27 18 16 16 19 19 19 23 34 42 46 46 53 63 73 84 70 58 78 77 72 59 58 65 82 92 81 82 81 82 91 87 84 85 84 84 79 73 65 62 74 84
26 25 34 45 41 32 32 29 19 17 18 23 29 30 31 29 34 41 48 50 59 72 85 82 58 56 68 56 58 68 72 74 78 85 84 80 85 93 93 90 85 86 85 80 74 71 72 88 68
30 33 24 36 50 43 25 22 16 17 18 19 24 29 29 30 32 38 40 47 58 70 83 84 85 85 84 57 59 67 63 61 80 89 86 89 99 100 100 96 89 88 89 81 74 73 86 82 59
27 24 36 33 46 42 28 25 18 16 16 16 16 21 30 40 39 40 43 47 56 67 82 92 93 89 90 79 65 70 80 81 87 94 87 90 92 99 100 100 97 95 93 85 77 89 79 87 76
33 32 31 29 32 37 36 25 16 15 16 19 20 22 25 36 44 50 52 56 63 69 79 87 78 88 92 89 86 71 72 77 86 91 95 93 94 93 84 96 99 98 96 89 83 91 96 93 100
20 23 27 35 32 33 35 29 15 16 18 20 20 24 28 34 42 52 60 66 68 74 76 74 78 82 86 93 92 95 87 86 88 93 96 89 98 96 100 100 100 100 98 87 93 100 98 97 100
Wind_Speed
3 3 2 4 7 6 13 8 4 3 5 3 1 5 2 12 4 1 3 14 21 27 29 33 32 31 31 30 29 27 25 23 21 22 23 23 23 23 24 25 26 26 27 26 24 21 22 21 21
2 1 2 5 8 10 11 2 5 5 4 1 1 2 1 4 6 3 2 15 23 28 29 31 33 33 32 31 29 27 25 24 25 25 25 24 24 25 26 27 27 27 26 24 22 20 20 19 19
2 4 9 4 7 10 7 1 4 5 1 5 2 3 3 3 7 2 3 14 25 28 28 30 35 33 31 30 29 27 26 27 27 26 25 25 26 27 28 27 27 26 25 23 20 19 18 18 17
2 4 5 9 10 5 9 5 6 7 4 3 3 6 7 3 3 2 10 16 24 31 30 33 35 33 32 30 29 29 29 29 27 26 26 27 29 30 28 28 27 26 24 21 19 18 17 16 15
2 6 7 7 7 6 6 6 7 10 3 5 6 5 5 3 7 7 14 15 24 31 31 34 35 33 31 29 28 30 31 29 27 28 29 30 31 30 28 27 26 24 22 20 19 17 15 14 14
5 5 7 4 0 2 2 5 5 5 5 5 6 8 4 4 4 10 16 18 29 31 30 34 31 29 28 27 29 30 29 29 31 31 31 30 30 29 27 25 24 22 21 20 18 16 14 13 13
6 6 5 6 4 2 6 3 3 3 6 3 4 5 5 6 7 10 12 14 18 24 31 36 32 30 30 28 25 29 30 31 32 32 31 31 30 29 27 25 23 22 21 19 17 14 13 12 13
4 4 4 2 3 4 5 2 1 5 3 2 2 3 5 12 10 10 12 10 15 19 31 38 37 36 33 30 24 27 31 32 31 30 31 31 30 27 25 23 22 21 18 16 13 12 11 11 11
4 5 3 1 6 8 4 5 5 2 3 3 1 1 7 16 12 10 8 12 13 22 34 38 42 43 39 37 28 23 29 31 31 28 29 30 27 26 22 21 19 16 14 12 10 10 9 9 10
7 5 1 3 9 10 5 7 4 4 6 4 5 6 14 16 11 9 12 14 17 25 35 36 37 42 40 31 29 27 28 31 32 29 29 21 22 19 20 19 17 14 11 9 9 7 7 8 7
2 8 5 7 4 7 6 5 4 5 4 1 8 17 18 15 12 10 13 17 23 35 40 45 44 43 43 36 31 29 31 32 26 31 24 21 22 21 18 17 16 12 10 10 7 5 4 4 5
8 8 8 9 7 2 1 0 1 3 4 0 14 19 16 12 11 12 19 21 27 34 34 37 35 36 39 40 33 32 34 28 29 29 27 24 22 19 16 13 13 13 12 7 5 4 1 3 7
11 11 7 6 2 0 4 2 3 2 7 12 19 17 13 12 11 11 13 23 32 32 36 37 37 38 39 40 38 34 30 32 28 29 25 21 18 19 16 14 12 10 9 8 6 4 0 5 7
6 11 9 3 5 3 2 2 2 5 9 13 13 15 14 11 13 14 17 19 24 24 33 39 35 38 39 40 32 29 21 25 26 26 24 21 17 16 13 13 10 10 10 8 7 3 3 4 6
10 10 7 8 9 2 3 7 1 9 9 12 13 15 14 12 14 16 18 20 21 25 28 29 28 28 32 32 24 24 27 27 25 21 23 19 17 15 13 12 12 11 12 10 9 6 6 5 6
9 6 9 7 7 4 5 7 6 10 11 13 13 14 15 14 16 16 18 19 24 25 23 25 25 26 23 21 21 21 21 25 22 21 21 18 17 15 14 14 13 14 12 11 11 9 6 6 6
8 11 5 3 5 2 7 4 8 11 11 13 15 14 14 15 16 18 21 21 26 26 26 24 23 22 23 22 22 22 24 24 21 22 20 18 17 17 15 14 13 13 14 14 13 11 9 8 6
9 9 8 5 5 6 6 6 7 12 13 12 15 15 15 16 19 20 21 24 25 26 26 26 25 21 21 21 21 19 21 20 19 20 20 19 18 17 16 15 13 14 16 17 15 14 11 5 4
7 7 8 6 4 5 6 7 6 14 15 15 15 15 16 17 19 21 23 25 26 26 27 28 25 21 21 19 19 19 20 20 21 21 22 20 18 18 17 15 16 18 17 17 17 15 10 7 6
7 8 7 2 3 6 4 8 2 12 16 17 17 17 17 16 19 23 25 26 27 28 29 28 27 23 22 20 19 18 19 20 20 20 23 21 20 18 18 19 18 17 17 20 19 16 11 8 9
9 10 4 2 2 4 7 11 8 8 13 15 16 16 17 19 21 23 25 28 28 30 30 29 28 24 23 21 19 18 17 17 21 22 25 25 21 20 22 22 20 20 22 22 21 18 14 9 9
10 10 5 4 7 7 3 6 5 7 12 14 18 20 22 23 23 24 26 28 29 29 28 28 27 26 25 23 21 23 22 21 20 20 22 25 26 25 24 24 23 23 24 23 23 20 16 13 7
4 4 7 6 9 7 8 7 4 3 8 15 22 25 25 24 26 28 28 28 28 28 29 29 28 27 26 25 25 22 22 19 18 21 21 26 27 27 27 27 26 25 26 27 26 24 19 16 11
4 6 6 5 6 9 11 8 5 7 7 6 8 23 27 26 27 27 27 26 26 27 28 28 29 28 27 26 27 26 25 24 22 22 22 26 30 29 28 28 27 27 28 29 28 25 23 19 20
10 9 7 7 7 8 4 7 10 2 3 7 9 9 15 27 29 29 28 30 29 29 29 29 30 30 29 30 30 30 31 28 29 28 27 29 29 29 28 30 31 31 31 31 30 27 24 23 20
14 12 6 6 5 5 4 6 3 3 5 7 8 9 11 16 28 32 29 29 28 28 27 29 31 32 30 31 30 31 31 32 31 27 30 32 29 28 27 30 33 32 33 33 30 28 25 22 15
8 9 3 3 0 3 5 5 10 2 3 4 3 4 4 8 16 22 27 29 28 25 27 28 27 26 27 32 32 29 28 26 27 27 32 29 27 28 29 28 32 33 34 34 32 28 25 15 14
6 9 6 5 5 7 5 5 4 3 3 2 3 3 2 2 6 11 14 19 23 23 22 22 22 23 23 25 25 25 25 23 23 25 26 28 29 30 30 26 28 35 35 34 30 23 18 18 17
6 7 3 2 3 4 4 4 2 3 2 2 1 2 3 1 3 6 8 9 12 15 17 18 17 17 18 18 17 17 17 18 19 23 24 27 28 30 25 29 34 35 34 34 26 24 21 15 19
7 10 12 7 6 4 7 10 6 8 5 4 4 5 4 2 1 4 7 9 10 11 12 12 13 14 15 14 14 13 13 16 17 19 21 22 25 25 28 31 32 37 36 32 26 22 21 23 28
Wind_Direction
293 283 205 226 243 235 249 232 314 211 240 355 227 259 23 45 6 307 272 173 171 167 167 171 170 170 169 168 167 167 168 167 162 156 148 142 141 138 135 133 128 124 122 122 119 115 108 101 94
265 191 208 248 253 234 231 176 213 32 351 38 75 203 108 83 80 7 209 174 169 169 167 169 172 171 169 167 169 170 169 165 157 151 147 146 141 139 135 130 127 126 124 124 121 114 107 98 90
227 200 256 254 252 257 269 115 20 6 193 245 179 62 86 38 32 210 210 183 175 172 165 172 173 174 172 171 171 171 166 158 153 151 148 143 142 138 132 129 128 129 128 128 122 113 106 97 87
205 227 229 250 250 246 282 304 317 298 194 215 230 116 99 84 167 208 185 181 185 177 170 173 173 174 173 172 171 167 161 157 155 152 147 146 142 135 131 127 127 131 130 127 119 112 104 97 86
201 255 261 255 260 265 269 304 307 296 271 175 195 149 113 115 123 158 162 183 187 175 174 174 174 171 170 170 167 163 160 159 155 151 150 147 140 135 132 129 129 128 127 120 116 112 105 94 84
222 274 250 268 325 294 329 326 294 266 196 163 183 152 110 148 156 163 180 175 176 185 174 172 167 167 164 162 165 162 160 159 155 153 151 144 140 136 134 131 129 126 124 120 117 112 106 91 80
283 269 316 306 359 157 11 330 269 229 173 144 162 162 134 167 172 162 187 197 191 184 174 163 164 166 161 153 158 159 161 158 156 153 147 143 141 139 136 131 129 129 127 123 122 113 98 90 73
270 275 266 225 1 33 27 292 215 227 160 167 203 156 179 190 163 174 186 194 199 199 159 163 169 168 153 151 157 159 157 156 153 146 145 144 142 137 137 136 135 133 130 125 115 104 101 80 65
228 254 257 0 321 1 359 280 193 231 179 169 19 357 134 170 159 166 172 181 187 171 170 170 170 165 152 148 148 162 157 153 146 143 143 145 142 143 135 141 141 143 135 125 125 113 90 71 52
245 267 72 334 326 325 328 271 209 236 177 187 94 131 149 153 150 154 168 169 161 172 173 172 164 162 148 139 146 158 152 149 146 149 151 150 145 143 146 147 151 144 144 146 123 104 78 72 62
208 275 344 315 333 306 294 216 212 257 227 270 176 145 133 134 129 149 156 157 161 162 162 150 146 143 144 147 148 155 154 152 154 170 162 166 157 156 152 159 152 158 161 148 135 116 108 59 54
263 259 288 311 329 292 192 107 185 293 339 119 142 147 136 129 136 146 152 151 149 143 139 145 146 144 147 146 151 154 148 150 170 181 181 173 170 166 164 160 165 173 164 168 174 173 123 27 1
246 281 327 291 258 48 124 250 2 69 91 123 134 138 140 144 154 172 158 159 151 153 149 145 140 145 149 149 153 165 169 175 181 184 185 185 182 179 179 178 181 176 184 185 209 197 144 339 335
324 297 299 127 138 227 244 176 277 106 119 129 141 139 144 155 153 145 140 154 160 157 151 144 148 155 156 151 162 181 187 183 182 187 190 193 192 191 190 198 192 201 197 205 204 198 268 301 316
293 287 190 170 170 154 214 206 147 141 145 146 149 142 142 160 152 149 149 144 149 146 148 154 158 158 157 170 180 184 186 188 190 193 198 195 196 199 201 214 216 223 221 214 219 237 258 273 306
276 263 245 135 191 149 255 80 111 153 164 164 158 155 150 159 163 159 160 150 157 155 167 167 167 175 180 187 185 187 191 191 195 197 197 200 209 213 217 224 228 231 223 221 230 240 239 260 288
210 264 260 158 216 169 234 69 132 164 181 177 170 164 158 159 166 176 176 170 167 172 174 177 176 177 182 191 198 195 196 197 201 204 209 215 221 224 221 227 234 228 225 229 236 238 232 253 271
216 221 228 257 148 206 220 257 154 174 189 192 180 175 174 172 176 178 179 180 179 182 185 184 185 189 195 199 200 198 201 202 207 211 216 218 225 227 221 229 241 234 234 237 232 231 236 225 218
281 250 242 120 113 259 239 274 196 184 195 193 195 188 188 189 185 185 182 182 184 188 189 191 194 200 203 202 201 200 204 205 209 213 218 222 228 223 223 236 249 240 242 229 230 232 242 243 262
232 232 205 179 168 301 282 276 256 186 207 202 200 201 199 191 189 193 193 195 196 200 202 203 207 208 208 208 206 206 207 212 214 216 223 222 224 227 235 244 248 244 228 232 232 234 230 225 257
219 257 166 277 166 240 278 258 194 201 211 212 217 212 208 203 200 202 202 202 203 206 207 208 210 213 213 209 210 210 209 211 213 220 227 226 228 235 242 249 247 242 237 235 233 235 233 226 255
207 215 253 219 241 247 228 275 168 180 199 213 217 217 216 210 208 208 209 211 210 210 209 210 212 212 214 211 214 212 212 215 221 225 230 236 230 234 242 245 243 240 235 229 234 237 236 241 239
236 188 234 267 268 274 209 254 148 173 218 214 217 216 219 217 211 212 211 212 213 211 212 213 212 213 213 214 215 220 220 225 230 226 226 235 239 239 241 242 239 235 235 236 236 242 239 250 271
131 182 220 251 264 245 237 244 218 203 236 247 222 218 221 219 219 217 216 214 215 213 212 214 213 216 216 222 227 226 227 223 224 225 233 244 244 244 243 241 237 237 238 239 239 241 241 252 284
200 215 229 216 217 241 152 229 265 246 242 273 279 260 228 222 220 221 215 213 213 213 212 218 221 219 222 227 234 236 238 236 237 244 246 246 249 248 246 247 239 237 238 240 240 242 247 262 276
204 219 225 229 216 212 164 234 191 78 275 273 271 272 257 235 220 222 221 216 217 215 216 219 224 225 224 231 236 236 240 243 241 241 246 250 252 253 257 254 244 240 240 241 243 245 248 269 255
169 214 248 245 193 258 229 233 254 163 240 286 284 280 273 237 217 220 222 222 222 219 218 222 221 221 222 235 238 241 249 252 244 240 247 254 255 254 256 256 249 247 244 242 240 241 255 250 239
252 140 183 213 233 234 183 245 269 166 144 31 31 18 66 180 202 213 217 218 219 221 219 216 217 218 220 233 245 251 251 255 254 253 257 253 255 259 260 254 255 248 247 239 234 246 237 242 230
171 190 221 283 269 261 257 243 165 221 190 228 299 305 336 49 150 180 185 196 202 205 209 213 219 215 217 228 236 250 255 261 261 262 262 258 259 262 264 253 244 245 246 233 231 237 245 224 269
255 221 211 235 209 237 269 257 192 262 246 236 262 246 248 256 192 151 152 158 166 180 190 198 204 208 212 216 229 238 251 257 260 265 269 267 265 262 256 253 245 243 240 229 231 242 222 250 282